1378339226754,0.866134
1378339286754,0.853858
1378339346754,0.852797
1378339406754,0.844475
1378339466754,0.848125
1378339526754,0.856659
1378339586754,0.845122
1378339646754,0.850431
1378339706754,0.850400
1378339766754,0.851654
1378339826754,0.853738
1378339886754,0.854041
1378339946754,0.856246
1378340006754,0.855858
1378340066754,0.849008
1378340126754,0.844436
1378340186754,0.856858
1378340246754,0.846174
1378340306754,0.851079
1378340366754,0.847552
1378340426754,0.846554
1378340486754,0.852639
1378340546754,0.854423
1378340606754,0.849310
1378340666754,0.855349
1378340726754,0.853037
1378340786754,0.850658
1378340846754,0.841323
1378340906754,0.849777
1378340966754,0.849804
1378341026754,0.854788
1378341086754,0.848809
1378341146754,0.850234
1378341206754,0.841357
1378341266754,0.852237
1378341326754,0.847127
1378341386754,0.856052
1378341446754,0.852962
1378341506754,0.853406
1378341566754,0.848578
1378341626754,0.858564
1378341686754,0.854048
1378341746754,0.853000
1378341806754,0.852422
1378341866754,0.854395
1378341926754,0.854224
1378341986754,0.865327
1378342046754,0.861233
1378342106754,0.853144
1378342166754,0.907706
1378342226754,0.852126
1378342286754,0.863668
1378342346754,0.855022
1378342406754,0.853958
1378342466754,0.854563
1378342526754,0.859035
1378342586754,0.854340
1378342646754,0.853399
1378342706754,0.852846
1378342766754,0.858413
1378342826767,0.858591
1378342886767,0.859034
1378342946767,0.861146
1378343006767,0.857249
1378343066767,0.854035
1378343126767,0.860884
1378343186767,0.859862
1378343246767,0.856911
1378343306767,0.861473
1378343366767,0.856800
1378343426767,0.864306
1378343486767,0.849081
1378343546767,0.858077
1378343606767,0.862213
1378343666767,0.852889
1378343726767,0.862472
1378343786767,0.856450
1378343846767,0.866676
1378343906767,0.861157
1378343966767,0.868059
1378344026767,0.859959
1378344086767,0.864563
1378344146767,0.858895
1378344206767,0.856953
1378344266767,0.860479
1378344326767,0.856800
1378344386767,0.867899
1378344446767,0.865682
1378344506767,0.863637
1378344566767,0.862318
1378344626767,0.858165
1378344686767,0.855937
1378344746767,0.856018
1378344806767,0.860964
1378344866767,0.861212
1378344926767,0.855203
1378344986767,0.866653
1378345046767,0.864395
1378345106767,0.861475
1378345166767,0.864743
1378345226767,0.863066
1378345286767,0.862810
1378345346767,0.860192
1378345406767,0.852042
1378345466767,0.859357
1378345526767,0.856685
1378345586767,0.863230
1378345646767,0.860342
1378345706767,0.857467
1378345766767,0.853574
1378345826767,0.856579
1378345886767,0.861193
1378345946767,0.853180
1378346006767,0.859236
1378346066767,0.853294
1378346126767,0.852129
1378346186767,0.854604
1378346246767,0.847199
1378346306767,0.854544
1378346366767,0.851109
1378346426779,0.849510
1378346486779,0.850596
1378346546779,0.854661
1378346606779,0.850622
1378346666779,0.849595
1378346726779,0.848055
1378346786779,0.853731
1378346846779,0.860840
1378346906779,0.856598
1378346966779,0.853764
1378347026779,0.858397
1378347086779,0.855725
1378347146779,0.852700
1378347206779,0.855400
1378347266779,0.856998
1378347326779,0.855921
1378347386779,0.847584
1378347446779,0.853633
1378347506779,0.842064
1378347566779,0.854986
1378347626779,0.843078
1378347686779,0.852514
1378347746779,0.857436
1378347806779,0.858024
1378347866779,0.849049
1378347926779,0.858678
1378347986779,0.855626
1378348046779,0.851425
1378348106779,0.858772
1378348166779,0.850833
1378348226779,0.847821
1378348286779,0.854338
1378348346779,0.854283
1378348406779,0.848236
1378348466779,0.856953
1378348526779,0.859868
1378348586779,0.856423
1378348646779,0.858519
1378348706779,0.846396
1378348766779,0.852927
1378348826779,0.849684
1378348886779,0.851539
1378348946779,0.851758
1378349006779,0.846823
1378349066779,0.858509
1378349126779,0.853202
1378349186779,0.849652
1378349246779,0.842894
1378349306779,0.854634
1378349366779,0.846104
1378349426779,0.853041
1378349486779,0.853848
1378349546779,0.852157
1378349606779,0.843968
1378349666779,0.846985
1378349726779,0.846186
1378349786779,0.845951
1378349846779,0.857380
1378349906779,0.841613
1378349966779,0.847534
1378350026791,0.849983
1378350086791,0.847562
1378350146791,0.845869
1378350206791,0.849837
1378350266791,0.850797
1378350326791,0.846378
1378350386791,0.849222
1378350446791,0.857716
1378350506791,0.847773
1378350566791,0.851235
1378350626791,0.848783
1378350686791,0.851498
1378350746791,0.846701
1378350806791,0.851798
1378350866791,0.846263
1378350926791,0.851225
1378350986791,0.846341
1378351046791,0.843799
1378351106791,0.846330
1378351166791,0.844010
1378351226791,0.849825
1378351286791,0.851302
1378351346791,0.846377
1378351406791,0.848283
1378351466791,0.854342
1378351526791,0.859880
1378351586791,0.857298
1378351646791,0.854522
1378351706791,0.853104
1378351766791,0.851870
1378351826791,0.853242
1378351886791,0.853840
1378351946791,0.852567
1378352006791,0.852477
1378352066791,0.849849
1378352126791,0.854950
1378352186791,0.857619
1378352246791,0.854985
1378352306791,0.850874
1378352366791,0.857499
1378352426791,0.852898
1378352486791,0.845254
1378352546791,0.853408
1378352606791,0.851840
1378352666791,0.856250
1378352726791,0.855968
1378352786791,0.850770
1378352846791,0.862363
1378352906791,0.854652
1378352966791,0.855141
1378353026791,0.850817
1378353086791,0.855409
1378353146791,0.854105
1378353206791,0.853240
1378353266791,0.862374
1378353326791,0.856649
1378353386791,0.856937
1378353446791,0.854286
1378353506791,0.852217
1378353566791,0.855363
1378353626802,0.855169
1378353686802,0.848808
1378353746802,0.849997
1378353806802,0.852775
1378353866802,0.861458
1378353926802,0.858594
1378353986802,0.858465
1378354046802,0.855496
1378354106802,0.860147
1378354166802,0.850237
1378354226802,0.856339
1378354286802,0.859238
1378354346802,0.856505
1378354406802,0.853605
1378354466802,0.860408
1378354526802,0.854138
1378354586802,0.855081
1378354646802,0.850179
1378354706802,0.854206
1378354766802,0.853977
1378354826802,0.845886
1378354886802,0.849136
1378354946802,0.853600
1378355006802,0.847120
1378355066802,0.852491
1378355126802,0.851433
1378355186802,0.852856
1378355246802,0.847145
1378355306802,0.856234
1378355366802,0.857641
1378355426802,0.856301
1378355486802,0.853877
1378355546802,0.848058
1378355606802,0.845018
1378355666802,0.858535
1378355726802,0.852540
1378355786802,0.856802
1378355846802,0.862565
1378355906802,0.850401
1378355966802,0.853380
1378356026802,0.849355
1378356086802,0.847741
1378356146802,0.857300
1378356206802,0.849787
1378356266802,0.851713
1378356326802,0.851219
1378356386802,0.854457
1378356446802,0.845367
1378356506802,0.857098
1378356566802,0.846110
1378356626802,0.854840
1378356686802,0.840098
1378356746802,0.855397
1378356806802,0.846807
1378356866802,0.853191
1378356926802,0.850724
1378356986802,0.850804
1378357046802,0.848303
1378357106802,0.842649
1378357166802,0.854207
1378357226814,0.849722
1378357286814,0.844972
1378357346814,0.847027
1378357406814,0.845109
1378357466814,0.840903
1378357526814,0.848640
1378357586814,0.845402
1378357646814,0.854603
1378357706814,0.854936
1378357766814,0.855547
1378357826814,0.854556
1378357886814,0.853553
1378357946814,0.845912
1378358006814,0.849048
1378358066814,0.854087
1378358126814,0.846281
1378358186814,0.856805
1378358246814,0.847440
1378358306814,0.852556
1378358366814,0.849209
1378358426814,0.851647
1378358486814,0.849998
1378358546814,0.855870
1378358606814,0.853761
1378358666814,0.846536
1378358726814,0.860841
1378358786814,0.852300
1378358846814,0.847349
1378358906814,0.849268
1378358966814,0.856926
1378359026814,0.855751
1378359086814,0.857933
1378359146814,0.861104
1378359206814,0.861698
1378359266814,0.863364
1378359326814,0.855879
1378359386814,0.857030
1378359446814,0.867718
1378359506814,0.854429
1378359566814,0.857558
1378359626814,0.852100
1378359686814,0.856862
1378359746814,0.855286
1378359806814,0.858928
1378359866814,0.858250
1378359926814,0.860092
1378359986814,0.846924
1378360046814,0.856809
1378360106814,0.858115
1378360166814,0.858670
1378360226814,0.851998
1378360286814,0.859034
1378360346814,0.854695
1378360406814,0.853671
1378360466814,0.855628
1378360526814,0.854497
1378360586814,0.868609
1378360646814,0.859152
1378360706814,0.860271
1378360766814,0.846947
1378360826826,0.854523
1378360886826,0.856265
1378360946826,0.852477
1378361006826,0.852054
1378361066826,0.863383
1378361126826,0.855424
1378361186826,0.862130
1378361246826,0.852532
1378361306826,0.861681
1378361366826,0.855899
1378361426826,0.861373
1378361486826,0.863139
1378361546826,0.859007
1378361606826,0.854214
1378361666826,0.865493
1378361726826,0.854307
1378361786826,0.864646
1378361846826,0.858448
1378361906826,0.855698
1378361966826,0.856730
1378362026826,0.854172
1378362086826,0.850027
1378362146826,0.857104
1378362206826,0.858113
1378362266826,0.854479
1378362326826,0.855829
1378362386826,0.858275
1378362446826,0.859207
1378362506826,0.858116
1378362566826,0.850972
1378362626826,0.857649
1378362686826,0.853475
1378362746826,0.852506
1378362806826,0.855903
1378362866826,0.844761
1378374746859,0.865504
1378374806859,0.866263
1378374866859,0.869938
1378374926859,0.867652
1378374986860,0.864011
1378375046860,0.861320
1378375106859,0.866500
1378375166859,0.865633
1378375226871,0.855023
1378375286871,0.859513
1378375346871,0.861536
1378375406871,0.862499
1378375466871,0.860069
1378375526871,0.865095
1378375586871,0.864717
1378375646871,0.862843
1378375706871,0.864503
1378375766871,0.861745
1378375826871,0.860488
1378375886871,0.858783
1378375946871,0.865596
1378376006871,0.864084
1378376066871,0.864532
1378376126871,0.866650
1378376186871,0.869800
1378376246871,0.865590
1378376306871,0.855685
1378376366871,0.860684
1378376426871,0.862246
1378376486871,0.864085
1378376546871,0.858985
1378376606871,0.862996
1378376666871,0.863079
1378376726871,0.865485
1378376786871,0.857111
1378376846871,0.865849
1378376906871,0.860266
1378376966871,0.858800
1378377026871,0.860685
1378377086871,0.863965
1378377146871,0.859677
1378377206871,0.857842
1378377266871,0.853245
1378377326871,0.864446
1378377386871,0.868844
1378377446871,0.860657
1378377506871,0.859501
1378377566871,0.867525
1378377626871,0.856702
1378377686871,0.859811
1378377746871,0.867135
1378377806871,0.864682
1378377866871,0.868123
1378377926871,0.862502
1378377986871,0.862481
1378378046871,0.861360
1378378106871,0.863329
1378378166871,0.869648
1378378226871,0.875755
1378378286871,0.861703
1378378346871,0.866106
1378378406871,0.859293
1378378466871,0.876766
1378378526871,0.867178
1378378586871,0.870822
1378378646871,0.871162
1378378706871,0.865840
1378378766871,0.876753
1378378826883,0.865546
1378378886883,0.878455
1378378946883,0.873427
1378379006883,0.869002
1378379066883,0.877175
1378379126883,0.871281
1378379186883,0.885096
1378379246883,0.884769
1378379306883,0.874751
1378379366883,0.882275
1378379426883,0.885639
1378379486883,0.876367
1378379546883,0.887598
1378379606883,0.880311
1378379666883,0.883730
1378379726883,0.877613
1378379786883,0.880746
1378379846883,0.875945
1378379906883,0.880921
1378379966883,0.875698
1378380026883,0.873402
1378380086883,0.866969
1378380146883,0.868653
1378380206883,0.872576
1378380266883,0.864124
1378380326883,0.865090
1378380386883,0.867232
1378380446883,0.870569
1378380506883,0.864044
1378380566883,0.871900
1378380626883,0.868440
1378380686883,0.858937
1378380746883,0.862919
1378380806883,0.861607
1378380866883,0.863261
1378380926883,0.867085
1378380986883,0.862516
1378381046883,0.863774
1378381106883,0.863852
1378381166883,0.867807
1378381226883,0.851440
1378381286883,0.864412
1378381346883,0.867010
1378381406883,0.855000
1378381466883,0.866025
1378381526883,0.861997
1378381586883,0.848552
1378381646883,0.865204
1378381706883,0.862788
1378381766883,0.858709
1378381826883,0.858721
1378381886883,0.869607
1378381946883,0.862791
1378382006883,0.863889
1378382066883,0.869411
1378382126883,0.865428
1378382186883,0.865326
1378382246883,0.858452
1378382306883,0.868024
1378382366883,0.865208
1378382426896,0.862192
1378382486896,0.858464
1378382546896,0.862781
1378382606896,0.855265
1378382666896,0.866613
1378382726896,0.859073
1378382786896,0.866328
1378382846896,0.863544
1378382906896,0.867193
1378382966896,0.864698
1378383026896,0.870231
1378383086896,0.866512
1378383146896,0.861531
1378383206896,0.864078
1378383266896,0.864135
1378383326896,0.859902
1378383386896,0.865024
1378383446896,0.860468
1378383506896,0.863956
1378383566896,0.866104
1378383626896,0.865326
1378383686896,0.862870
1378383746896,0.861961
1378383806896,0.868399
1378383866896,0.861122
1378383926896,0.866953
1378383986896,0.866910
1378384046896,0.860788
1378384106896,0.865257
1378384166896,0.866590
1378384226896,0.868339
1378384286896,0.863703
1378384346896,0.865157
1378384406896,0.864773
1378384466896,0.864650
1378384526896,0.865889
1378384586896,0.868828
1378384646896,0.866606
1378384706896,0.864797
1378384766896,0.864077
1378384826896,0.862302
1378384886896,0.867870
1378384946896,0.872929
1378385006896,0.863886
1378385066896,0.872770
1378385126896,0.874315
1378385186896,0.871796
1378385246896,0.866758
1378385306896,0.870984
1378385366896,0.872205
1378385426896,0.872237
1378385486896,0.877384
1378385546896,0.870695
1378385606896,0.866559
1378385666896,0.872199
1378385726896,0.869701
1378385786896,0.867641
1378385846896,0.868866
1378385906896,0.872834
1378385966896,0.865844
1378386026908,0.882415
1378386086908,0.878267
1378386146908,0.880645
1378386206908,0.880284
1378386266908,0.876974
1378386326908,0.877976
1378386386908,0.878624
1378386446908,0.878702
1378386506908,0.873124
1378386566908,0.883623
1378386626908,0.884022
1378386686908,0.884289
1378386746908,0.880350
1378386806908,0.875239
1378386866908,0.879990
1378386926908,0.876778
1378386986908,0.881713
1378387046908,0.875952
1378387106908,0.884992
1378387166908,0.882687
1378387226908,0.889206
1378387286908,0.879422
1378387346908,0.883566
1378387406908,0.876383
1378387466908,0.876431
1378387526908,0.878359
1378387586908,0.878592
1378387646908,0.884762
1378387706908,0.872871
1378387766908,0.886115
1378387826908,0.884853
1378387886908,0.888386
1378387946908,0.883619
1378388006908,0.879787
1378388066908,0.875339
1378388126908,0.881871
1378388186908,0.887604
1378388246908,0.880239
1378388306908,0.876504
1378388366908,0.886889
1378388426908,0.878625
1378388486908,0.878504
1378388546908,0.881141
1378388606908,0.878437
1378388666908,0.879256
1378388726908,0.876849
1378388786908,0.878944
1378388846908,0.879646
1378388906908,0.879327
1378388966908,0.884558
1378389026908,0.879619
1378389086908,0.884526
1378389146908,0.883506
1378389206908,0.875851
1378389266908,0.877643
1378389326908,0.878707
1378389386908,0.876627
1378389446908,0.874095
1378389506908,0.877921
1378389566908,0.878276
1378389626921,0.879164
1378389686921,0.866258
1378389746921,0.873257
1378389806921,0.875003
1378389866921,0.874682
1378389926921,0.880947
1378389986921,0.872552
1378390046921,0.865671
1378390106921,0.872950
1378390166921,0.879284
1378390226921,0.876845
1378390286921,0.872254
1378390346921,0.870335
1378390406921,0.869685
1378390466921,0.869458
1378390526921,0.874848
1378390586921,0.877675
1378390646921,0.869175
1378390706921,0.867089
1378390766921,0.873047
1378390826921,0.872696
1378390886921,0.868165
1378390946921,0.866255
1378391006921,0.870339
1378391066921,0.861863
1378391126921,0.869290
1378391186921,0.869453
1378391246921,0.873367
1378391306921,0.869448
1378391366921,0.862963
1378391426921,0.868076
1378391486921,0.866728
1378391546921,0.871746
1378391606921,0.867155
1378391666921,0.862306
1378391726921,0.860685
1378391786921,0.874897
1378391846921,0.861708
1378391906921,0.866054
1378391966921,0.870092
1378392026921,0.873609
1378392086921,0.870051
1378392146921,0.863723
1378392206921,0.866218
1378392266921,0.871417
1378392326921,0.858687
1378392386921,0.871203
1378392446921,0.869922
1378392506921,0.864561
1378392566921,0.868961
1378392626921,0.873801
1378392686921,0.871631
1378392746921,0.865155
1378392806921,0.869700
1378392866921,0.864434
1378392926921,0.869434
1378392986921,0.873298
1378393046921,0.863763
1378393106921,0.871267
1378393166921,0.877124
1378393226934,0.872532
1378393286934,0.872344
1378393346934,0.875734
1378393406934,0.879250
1378393466934,0.882496
1378393526934,0.882328
1378393586934,0.885597
1378393646934,0.892363
1378393706934,0.889806
1378393766934,0.893924
1378393826934,0.891020
1378393886934,0.896605
1378393946934,0.897087
1378394006934,0.898703
1378394066934,0.900217
1378394126934,0.897146
1378394186934,0.898957
1378394246934,0.891820
1378394306934,0.893471
1378394366934,0.897472
1378394426934,0.889923
1378394486934,0.890007
1378394546934,0.892986
1378394606934,0.894587
1378394666934,0.896959
1378394726934,0.894338
1378394786934,0.894352
1378394846934,0.884583
1378394906934,0.890767
1378394966934,0.898570
1378395026934,0.884685
1378395086934,0.887604
1378395146934,0.885656
1378395206934,0.891468
1378395266934,0.877506
1378395326934,0.873694
1378395386934,0.880011
1378395446934,0.876996
1378395506934,0.881125
1378395566934,0.877841
1378395626934,0.884312
1378395686934,0.876763
1378395746934,0.874755
1378395806934,0.877460
1378395866934,0.881939
1378395926934,0.877215
1378395986934,0.880563
1378396046934,0.877586
1378396106934,0.870121
1378396166934,0.871387
1378396226934,0.875525
1378396286934,0.871294
1378396346934,0.877707
1378396406934,0.871419
1378396466934,0.880312
1378396526934,0.875400
1378396586934,0.877581
1378396646934,0.877772
1378396706934,0.876009
1378396766934,0.868520
1378396826948,0.874361
1378396886948,0.876926
1378396946948,0.880695
1378397006948,0.883417
1378397066948,0.865677
1378397126948,0.875424
1378397186948,0.877267
1378397246948,0.876310
1378397306948,0.873260
1378397366948,0.870985
1378397426948,0.878698
1378397486948,0.877110
1378397546948,0.873110
1378397606948,0.875286
1378397666948,0.874905
1378397726948,0.873690
1378397786948,0.876922
1378397846948,0.871412
1378397906948,0.875872
1378397966948,0.875115
1378398026948,0.875715
1378398086948,0.874631
1378398146948,0.874481
1378398206948,0.866544
1378398266948,0.875055
1378398326948,0.874703
1378398386948,0.872235
1378398446948,0.880187
1378398506948,0.878467
1378398566948,0.877323
1378398626948,0.879886
1378398686948,0.866745
1378398746948,0.874168
1378398806948,0.871563
1378398866948,0.879751
1378398926948,0.871702
1378398986948,0.873464
1378399046948,0.874646
1378399106948,0.872651
1378399166948,0.874109
1378399226948,0.876330
1378399286948,0.879190
1378399346948,0.883745
1378399406948,0.884885
1378399466948,0.883212
1378399526948,0.881331
1378399586948,0.882339
1378399646948,0.877795
1378399706948,0.876840
1378399766948,0.882757
1378399826948,0.871478
1378399886948,0.881919
1378399946948,0.878840
1378400006948,0.874383
1378400066948,0.888884
1378400126948,0.881313
1378400186948,0.887490
1378400246948,0.883477
1378400306948,0.885921
1378400366948,0.887459
1378400426961,0.888063
1378400486961,0.893095
1378400546961,0.884589
1378400606961,0.884515
1378400666961,0.887354
1378400726961,0.888229
1378400786961,0.881326
1378400846961,0.887044
1378400906961,0.886602
1378400966961,0.886386
1378401026961,0.885271
1378401086961,0.881490
1378401146961,0.879986
1378401206961,0.881543
1378401266961,0.877711
1378401326961,0.880736
1378401386961,0.878485
1378401446961,0.880769
1378401506961,0.871332
1378401566961,0.879524
1378401626961,0.884310
1378401686961,0.891879
1378401746961,0.883038
1378401806961,0.875739
1378401866961,0.884266
1378401926961,0.881917
1378401986961,0.877414
1378402046961,0.882009
1378402106961,0.875141
1378402166961,0.880046
1378402226961,0.878961
1378402286961,0.884996
1378402346961,0.874818
1378402406961,0.881960
1378402466961,0.886597
1378402526961,0.879178
1378402586961,0.876580
1378402646961,0.881459
1378402706961,0.878265
1378402766961,0.882318
1378402826961,0.872166
1378402886961,0.878085
1378402946961,0.880990
1378403006961,0.878766
1378403066961,0.880776
1378403126961,0.880792
1378403186961,0.874255
1378403246961,0.877950
1378403306961,0.878406
1378403366961,0.883651
1378403426961,0.875492
1378403486961,0.880447
1378403546961,0.882214
1378403606961,0.884884
1378403666961,0.884496
1378403726961,0.871592
1378403786961,0.873385
1378403846961,0.878081
1378403906961,0.876239
1378403966961,0.879091
1378404026975,0.883758
1378404086975,0.878370
1378404146975,0.874022
1378404206975,0.879399
1378404266975,0.877528
1378404326975,0.876300
1378404386975,0.881654
1378404446975,0.870269
1378404506975,0.869884
1378404566975,0.877359
1378404626975,0.879808
1378404686975,0.879553
1378404746975,0.880248
1378404806975,0.879935
1378404866975,0.880294
1378404926975,0.879440
1378404986975,0.878636
1378405046975,0.883632
1378405106975,0.879108
1378405166975,0.878878
1378405226975,0.883008
1378405286975,0.880350
1378405346975,0.879906
1378405406975,0.880241
1378405466975,0.883079
1378405526975,0.877033
1378405586975,0.885314
1378405646975,0.880603
1378405706975,0.876117
1378405766975,0.877318
1378405826975,0.875385
1378405886975,0.877713
1378405946975,0.876423
1378406006975,0.876642
1378406066975,0.880523
1378406126975,0.870540
1378406186975,0.882767
1378406246975,0.883728
1378406306975,0.880103
1378406366975,0.890708
1378406426975,0.881940
1378406486975,0.881996
1378406546975,0.889805
1378406606975,0.880928
1378406666975,0.879921
1378406726975,0.876280
1378406786975,0.876086
1378406846975,0.876540
1378406906975,0.877889
1378406966975,0.875937
1378407026975,0.877137
1378407086975,0.880382
1378407146975,0.877127
1378407206975,0.879558
1378407266975,0.874860
1378407326975,0.875702
1378407386975,0.873283
1378407446975,0.877995
1378407506975,0.866300
1378407566975,0.872087
1378407626989,0.874785
1378407686989,0.879892
1378407746989,0.879563
1378407806989,0.869087
1378407866989,0.887486
1378407926989,0.882198
1378407986989,0.883103
1378408046989,0.883109
1378408106989,0.883221
1378408166989,0.878452
1378408226989,0.885429
1378408286989,0.881312
1378408346989,0.885450
1378408406989,0.880626
1378408466989,0.876686
1378408526989,0.886299
1378408586989,0.881534
1378408646989,0.879414
1378408706989,0.876928
1378408766989,0.875823
1378408826989,0.884531
1378408886989,0.885432
1378408946989,0.889560
1378409006989,0.886202
1378409066989,0.893259
1378409126989,0.881585
1378409186989,0.893656
1378409246989,0.891075
1378409306989,0.892803
1378409366989,0.886806
1378409426989,0.897557
1378409486989,0.893763
1378409546989,0.900187
1378409606989,0.881365
1378409666989,0.891707
1378409726989,0.894634
1378409786989,0.891412
1378409846989,0.894103
1378409906989,0.888772
1378409966989,0.882201
1378410026989,0.888185
1378410086989,0.886102
1378410146989,0.879611
1378410206989,0.883339
1378410266989,0.880855
1378410326989,0.883130
1378410386989,0.886711
1378410446989,0.887654
1378410506989,0.887404
1378410566989,0.883504
1378410626989,0.893965
1378410686989,0.911345
1378410746989,0.917987
1378410806989,0.926910
1378410866989,0.934329
1378410926989,0.939847
1378410986989,0.944273
1378411046989,0.929214
1378411106989,0.932461
1378411166989,0.927815
1378411227003,0.920909
1378411287003,0.916006
1378411347003,0.922978
1378411407003,0.918903
1378411467003,0.914180
1378411527003,0.905203
1378411587003,0.906724
1378411647003,0.913012
1378411707003,0.905779
1378411767003,0.912210
1378411827003,0.910104
1378411887003,0.912383
1378411947003,0.910682
1378412007003,0.908203
1378412067003,0.915940
1378412127003,0.907526
1378412187003,0.910491
1378412247003,0.901343
1378412307003,0.906686
1378412367003,0.911903
1378412427003,0.905654
1378412487003,0.896184
1378412547003,0.909473
1378412607003,0.897898
1378412667003,0.898766
1378412727003,0.903179
1378412787003,0.898172
1378412847003,0.900863
1378412907003,0.896279
1378412967003,0.903072
1378413027003,0.903561
1378413087003,0.897623
1378413147003,0.894126
1378413207003,0.892536
1378413267003,0.890823
1378413327003,0.891121
1378413387003,0.894576
1378413447003,0.893917
1378413507003,0.895562
1378413567003,0.884662